Weather History for Amritsar, India

Change the Weather History Date:

Tuesday, February 28, 2012

  Actual Average Record
Temperature  
Mean Temperature 60 °F -  
Max Temperature 75 °F 71 °F 80 °F (2003)
Min Temperature 44 °F 51 °F 44 °F (2012)
Degree Days  
Heating Degree Days 6    
Growing Degree Days 10 (Base 50)    
Moisture  
Dew Point 46 °F    
Average Humidity 63    
Maximum Humidity 87    
Minimum Humidity 24    
Precipitation  
Precipitation 0.00 in - - ()
Sea Level Pressure  
Sea Level Pressure 29.74 in    
Wind  
Wind Speed 3 mph ()    
Max Wind Speed 13 mph    
Max Gust Speed -    
Visibility 2.9 miles    
Events      
Averages and records for this station are not official NWS values.
T = Trace of Precipitation, MM = Missing Value Source: Averaged Metar Reports

Daily Weather History Graph

Daily Weather History Graph

Search for Another Location

Airport:

Trip Planner

Search our weather history database for the weather conditions in past years. The results will help you decide how hot, cold, wet, or windy it might be!

Date:

Astronomy

Feb. 28, 2012 Rise Set
Actual Time 7:00 AM IST 6:27 PM IST
Civil Twilight 6:35 AM IST 6:51 PM IST
Nautical Twilight 6:07 AM IST 7:20 PM IST
Astronomical Twilight 5:39 AM IST 7:48 PM IST
Moon 10:15 AM IST (2/28) 12:23 AM IST (2/29)
Length of Visible Light 12h 16m
Length of Day
11h 27m
Waxing Crescent, 33% of the Moon is Illuminated
Feb 28
Waxing Crescent
Mar 1
First Quarter
Mar 8
Full
Mar 15
Last Quarter
Mar 22
New

Hourly Weather History & Observations

Time (IST) Temp. Windchill Dew Point Humidity Pressure Visibility Wind Dir Wind Speed Gust Speed Precip Events Conditions
12:00 AM 53.6 °F - 46.4 °F 77% 29.80 in 2.5 mi Calm Calm - N/A   Haze
12:30 AM 51.8 °F - 44.6 °F 76% 29.80 in 2.5 mi Calm Calm - N/A   Haze
1:00 AM 50.0 °F - 46.4 °F 87% 29.80 in 2.5 mi Calm Calm - N/A   Haze
1:30 AM 51.8 °F - 44.6 °F 76% 29.80 in 2.5 mi Calm Calm - N/A   Haze
2:00 AM 50.0 °F - 46.4 °F 87% 29.77 in 2.5 mi Calm Calm - N/A   Haze
2:30 AM 50 °F - 44 °F 74% 29.78 in 1 mi Calm Calm - -   Haze
2:30 AM 50.0 °F - 44.6 °F 82% 29.77 in 2.2 mi Calm Calm - N/A   Haze
3:00 AM 51.8 °F - 44.6 °F 76% 29.74 in 2.2 mi Calm Calm - N/A   Haze
3:30 AM 50.0 °F - 44.6 °F 82% 29.74 in 2.2 mi Calm Calm - N/A   Haze
4:00 AM 50.0 °F - 42.8 °F 76% 29.74 in 2.2 mi Calm Calm - N/A   Haze
4:30 AM 50.0 °F - 42.8 °F 76% 29.74 in 2.2 mi Calm Calm - N/A   Haze
5:00 AM 50.0 °F - 42.8 °F 76% 29.71 in 2.2 mi Calm Calm - N/A   Haze
5:30 AM 50 °F - 44 °F 71% 29.74 in 1 mi Calm Calm - -   Haze
5:30 AM 50.0 °F - 42.8 °F 76% 29.71 in 2.2 mi Calm Calm - N/A   Haze
6:00 AM 46.4 °F 45.2 °F 41.0 °F 81% 29.74 in 2.2 mi SW 3.5 mph - N/A   Scattered Clouds
6:30 AM 46.4 °F - 41.0 °F 81% 29.74 in 2.2 mi Calm Calm - N/A   Scattered Clouds
7:00 AM 44.6 °F - 41.0 °F 87% 29.74 in 2.2 mi Calm Calm - N/A   Partly Cloudy
7:30 AM 46.4 °F - 41.0 °F 81% 29.74 in 1.9 mi Calm Calm - N/A   Partly Cloudy
8:00 AM 48.2 °F - 44.6 °F 87% 29.74 in 1.9 mi Calm Calm - N/A   Scattered Clouds
8:30 AM 51 °F - 44 °F 69% 29.78 in 1 mi WSW 2.3 mph - -   Haze
8:30 AM 51.8 °F - 44.6 °F 76% 29.77 in 1.9 mi Variable 2.3 mph - N/A   Haze
9:00 AM 55.4 °F - 46.4 °F 72% 29.77 in 2.5 mi West 3.5 mph - N/A   Haze
10:00 AM 60.8 °F - 44.6 °F 55% 29.77 in 3.7 mi WNW 6.9 mph - N/A   Scattered Clouds
10:30 AM 64.4 °F - 44.6 °F 49% 29.77 in 3.7 mi WNW 9.2 mph - N/A   Scattered Clouds
11:00 AM 66.2 °F - 46.4 °F 49% 29.77 in 3.7 mi WNW 10.4 mph - N/A   Scattered Clouds
12:00 PM 69.8 °F - 44.6 °F 40% 29.77 in 3.7 mi WNW 12.7 mph - N/A   Scattered Clouds
12:30 PM 69.8 °F - 44.6 °F 40% 29.74 in 3.7 mi West 12.7 mph - N/A   Unknown
1:00 PM 69.8 °F - 46.4 °F 43% 29.74 in 3.7 mi West 11.5 mph - N/A   Unknown
1:30 PM 71.6 °F - 44.6 °F 38% 29.74 in 3.7 mi West 12.7 mph - N/A   Unknown
2:00 PM 73.4 °F - 44.6 °F 36% 29.71 in 3.7 mi West 11.5 mph - N/A   Unknown
2:30 PM 74 °F - 44 °F 24% 29.69 in 2 mi West 11.5 mph - -  
2:30 PM 73.4 °F - 44.6 °F 36% 29.71 in 3.7 mi West 11.5 mph - N/A   Unknown
3:00 PM 73.4 °F - 44.6 °F 36% 29.71 in 4.3 mi West 11.5 mph - N/A   Unknown
3:30 PM 73.4 °F - 44.6 °F 36% 29.68 in 4.3 mi West 10.4 mph - N/A   Unknown
4:00 PM 73.4 °F - 44.6 °F 36% 29.68 in 4.3 mi West 10.4 mph - N/A   Unknown
4:30 PM 73.4 °F - 44.6 °F 36% 29.68 in 4.3 mi West 9.2 mph - N/A   Unknown
5:00 PM 73.4 °F - 48.2 °F 41% 29.68 in 3.7 mi West 8.1 mph - N/A   Unknown
5:30 PM 71 °F - 48 °F 33% 29.68 in 2 mi WNW 6.9 mph - -   Scattered Clouds
5:30 PM 71.6 °F - 50.0 °F 46% 29.71 in 3.7 mi WNW 5.8 mph - N/A   Partly Cloudy
6:00 PM 69.8 °F - 50.0 °F 49% 29.71 in 3.7 mi West 3.5 mph - N/A   Partly Cloudy
6:30 PM 66.2 °F - 51.8 °F 60% 29.71 in 3.7 mi Calm Calm - N/A   Partly Cloudy
7:00 PM 64.4 °F - 48.2 °F 56% 29.71 in 3.7 mi Variable 1.2 mph - N/A   Partly Cloudy
7:30 PM 62.6 °F - 50.0 °F 63% 29.74 in 3.7 mi Calm Calm - N/A   Partly Cloudy
8:00 PM 62.6 °F - 50.0 °F 63% 29.74 in 3.7 mi Calm Calm - N/A   Partly Cloudy
8:30 PM 61 °F - 48 °F 52% 29.74 in 2 mi NNW 5.8 mph - -   Scattered Clouds
8:30 PM 60.8 °F - 48.2 °F 63% 29.74 in 3.7 mi NNW 5.8 mph - N/A   Partly Cloudy
9:00 PM 59.0 °F - 46.4 °F 63% 29.74 in 3.7 mi Variable 2.3 mph - N/A   Unknown
9:30 PM 59.0 °F - 48.2 °F 67% 29.74 in 3.7 mi Calm Calm - N/A   Unknown
10:00 PM 55.4 °F - 48.2 °F 77% 29.74 in 3.7 mi Calm Calm - N/A   Unknown
10:30 PM 53.6 °F - 48.2 °F 82% 29.71 in 3.7 mi Calm Calm - N/A   Unknown
11:00 PM 55.4 °F - 48.2 °F 77% 29.71 in 3.7 mi Calm Calm - N/A   Unknown
11:30 PM 52 °F - 46 °F 73% 29.73 in 2 mi Calm Calm - -  
11:30 PM 51.8 °F - 46.4 °F 82% 29.71 in 3.7 mi Calm Calm - N/A   Unknown